This is the latest recevied weather packets stored in our database for station/object SP1BMW-13. If no packets are shown the sender has not sent any weather packets the latest 10 day(s).
| Time | Temp. | Humidity | Pressure | Rain* | Wind** | Luminosity | Snow |
|---|---|---|---|---|---|---|---|
| 1787813896 | 19.44° C | 62% | 1020.8 hPa | 0 mm | 0.45 m/s, 173° | 215 W/m² | - |
| 1787813836 | 19.44° C | 61% | 1020.6 hPa | 0 mm | 1.34 m/s, 140° | 213 W/m² | - |
| 1787813776 | 19.44° C | 63% | 1020.7 hPa | 0 mm | 0 m/s | 211 W/m² | - |
| 1787813716 | 19.44° C | 62% | 1020.8 hPa | 0 mm | 0.89 m/s, 107° | 209 W/m² | - |
| 1787813656 | 19.44° C | 62% | 1020.9 hPa | 0 mm | 0.45 m/s, 74° | 207 W/m² | - |
| 1787813596 | 19.44° C | 64% | 1020.6 hPa | 0 mm | 0.45 m/s, 79° | 205 W/m² | - |
| 1787813536 | 19.44° C | 64% | 1020.8 hPa | 0 mm | 0 m/s | 203 W/m² | - |
| 1787813476 | 19.44° C | 63% | 1020.8 hPa | 0 mm | 0 m/s | 201 W/m² | - |
| 1787813416 | 19.44° C | 63% | 1020.8 hPa | 0 mm | 0.45 m/s, 48° | 199 W/m² | - |
| 1787813356 | 19.44° C | 63% | 1020.8 hPa | 0 mm | 1.34 m/s, 66° | 197 W/m² | - |
| 1787813297 | 19.44° C | 64% | 1020.8 hPa | 0 mm | 0.45 m/s, 32° | 195 W/m² | - |
| 1787813236 | 19.44° C | 63% | 1020.8 hPa | 0 mm | 0.45 m/s, 38° | 193 W/m² | - |
| 1787813176 | 19.44° C | 62% | 1020.7 hPa | 0 mm | 0.45 m/s, 138° | 191 W/m² | - |
| 1787813116 | 19.44° C | 63% | 1020.7 hPa | 0 mm | 0.89 m/s, 43° | 189 W/m² | - |
| 1787812996 | 18.89° C | 65% | 1020.8 hPa | 0 mm | 0 m/s | 185 W/m² | - |
| 1787812936 | 18.89° C | 64% | 1020.8 hPa | 0 mm | 0 m/s | 183 W/m² | - |
| 1787812876 | 18.89° C | 64% | 1020.6 hPa | 0 mm | 0.89 m/s, 301° | 181 W/m² | - |
| 1787812816 | 18.89° C | 64% | 1020.7 hPa | 0 mm | 0 m/s | 179 W/m² | - |
| 1787812756 | 18.89° C | 64% | 1020.8 hPa | 0 mm | 0.45 m/s, 63° | 177 W/m² | - |
| 1787812696 | 18.89° C | 63% | 1020.7 hPa | 0 mm | 1.34 m/s, 83° | 174 W/m² | - |
| 1787812636 | 18.89° C | 64% | 1020.8 hPa | 0 mm | 0.45 m/s, 37° | 172 W/m² | - |
| 1787812576 | 18.89° C | 65% | 1020.8 hPa | 0 mm | 0.45 m/s, 304° | 169 W/m² | - |
| 1787812516 | 18.89° C | 66% | 1020.7 hPa | 0 mm | 0 m/s | 167 W/m² | - |
| 1787812456 | 18.89° C | 65% | 1020.8 hPa | 0 mm | 0 m/s | 164 W/m² | - |
| 1787812396 | 18.89° C | 65% | 1020.6 hPa | 0 mm | 0.45 m/s, 5° | 161 W/m² | - |
* Rain latest hour (hover to see other rain measurements)
** Current wind speed in m/s (hover to see current wind gust speed)